Location: Siratepeler Tepesi
(39.1042°N, 32.0781°E)
Time: 10:50:14
(UTC+00:00)

Cosmos 1328 - Pass Details

Date: 11 April 2026
Orbit: 454 x 467 km, 82.5° (Epoch: 14 May)

Event Time Altitude Azimuth Distance (km) Brightness Sun altitude
Rises 16:52:07 0° 358° (N) 2,484 7.4 -5.9°
Reaches altitude 10° 16:54:15 10° 4° (N) 1,608 6.4 -6.3°
Maximum altitude 16:57:39 49° 80° (E) 605 3.7 -7.0°
Drops below altitude 10° 17:01:03 10° 157° (SSE) 1,603 5.8 -7.6°
Sets 17:03:10 0° 162° (SSE) 2,475 6.8 -8.0°
